This is the latest recevied weather packets stored in our database for station/object W4SPD. If no packets are shown the sender has not sent any weather packets the latest 1 day(s).
| Time | Temp. | Humidity | Pressure | Rain* | Wind** | Luminosity | Snow |
|---|---|---|---|---|---|---|---|
| 1778027246 | 21.11° C | 57% | - | 0 mm | 0 m/s | - | - |
| 1778026943 | 21.67° C | 59% | - | 0 mm | 0 m/s | - | - |
| 1778026639 | 21.67° C | 57% | - | 0 mm | 0 m/s | - | - |
| 1778026337 | 22.22° C | 56% | - | 0 mm | 0 m/s | - | - |
| 1778026033 | 21.67° C | 54% | - | 0 mm | 0 m/s | - | - |
| 1778025731 | 22.22° C | 54% | - | 0 mm | 0 m/s | - | - |
| 1778025428 | 22.22° C | 52% | - | 0 mm | 0 m/s | - | - |
| 1778025126 | 22.78° C | 51% | - | 0 mm | 0 m/s | - | - |
| 1778024822 | 22.78° C | 50% | - | 0 mm | 0 m/s | - | - |
| 1778024520 | 22.78° C | 49% | - | 0 mm | 0 m/s | - | - |
| 1778024216 | 23.33° C | 47% | - | 0 mm | 0 m/s | - | - |
| 1778023914 | 23.33° C | 46% | - | 0 mm | 0 m/s | - | - |
| 1778023612 | 23.33° C | 46% | - | 0 mm | 0 m/s | - | - |
| 1778023309 | 23.33° C | 46% | - | 0 mm | 0 m/s | - | - |
| 1778023005 | 23.89° C | 45% | - | 0 mm | 0 m/s | - | - |
| 1778022705 | 23.89° C | 46% | - | 0 mm | 0 m/s | - | - |
| 1778022402 | 23.89° C | 45% | - | 0 mm | 0 m/s | - | - |
| 1778022098 | 24.44° C | 42% | - | 0 mm | 0 m/s | - | - |
| 1778021795 | 24.44° C | 43% | - | 0 mm | 0.45 m/s, 149° | - | - |
| 1778021491 | 24.44° C | 43% | - | 0 mm | 0 m/s | - | - |
| 1778021188 | 23.89° C | 46% | - | 0 mm | 0 m/s | - | - |
| 1778020885 | 23.89° C | 41% | - | 0 mm | 0 m/s | - | - |
| 1778020582 | 23.89° C | 42% | - | 0 mm | 0 m/s | - | - |
| 1778020279 | 24.44° C | 46% | - | 0 mm | 0 m/s | - | - |
| 1778019975 | 24.44° C | 44% | - | 0 mm | 0 m/s | - | - |
* Rain latest hour (hover to see other rain measurements)
** Current wind speed in m/s (hover to see current wind gust speed)